Starlink 3198

operational
NORAD ID: 49763 Int'l Des: 2021-115 Owner: SPXS Country: US Constellation: starlink
LEOCIRCULAR

Starlink 3198について

説明を読み込み中...

リアルタイム位置

3D地球を読み込み中...

次回通過

高度履歴

Altitude vs Time

uPlot chart will show altitude changes over time

軌道要素

1 49763U 21115AR 25259.22177256 .00001156 00000-0 90702-4 0 9999
2 49763 53.2150 202.3375 0001491 91.3853 268.7310 15.08842551209347
Epoch: Sep 16, 2025 • Age: 13 hours

現在のステータス

高度 540.1 km
速度 7.60 km/s
衛星直下点 23.71°N, 49.54°W
打ち上げ日 Dec 2, 2021
運用期間 3.7 years
タイプ internet

技術仕様

分類 Payload
質量 290.00 kg
乾燥質量 270.00 kg
総質量 290.00 kg
長さ 0.20 m
直径 2.80 m
スパン 9.00 m
形状 Box + pan
製造者 SPXS
バスタイプ Starlink
フェーズステータス In Orbit
所有者/国 SPXS/US

大規模コンステレーション

Loading constellations...